RH
16 32 27 21 22 25 34 30 23 21 22 31 35 34 32 33 33 34 30 42 46 47 44 45 35 20 20 41 83 95 94 98 99 100 100 99 100 100 100 100 99 98 85 73
22 29 18 23 24 30 32 35 25 17 17 26 35 32 32 34 33 32 34 42 45 47 48 59 35 17 23 33 72 90 99 99 100 100 100 100 99 99 100 100 93 90 82 75
19 14 14 26 25 30 30 35 26 23 14 25 36 33 29 32 33 34 32 38 44 41 47 57 38 14 22 28 37 78 87 97 100 100 100 100 99 99 99 97 96 96 83 72
38 26 25 35 30 28 35 28 25 20 31 36 40 44 34 32 32 30 31 35 39 33 40 39 38 18 16 24 22 31 67 87 98 98 97 100 98 99 97 87 87 84 75 70
33 29 26 32 33 36 28 32 27 21 26 36 41 46 39 35 34 31 27 31 32 35 35 41 41 25 14 19 22 17 19 33 55 79 95 98 88 94 100 91 90 78 65 64
21 33 32 32 27 40 31 37 30 32 44 63 48 45 39 35 34 29 29 30 30 32 35 44 35 23 18 15 15 18 20 15 20 25 32 37 43 56 72 81 74 64 61 62
49 48 37 36 33 41 36 37 55 58 71 67 39 43 39 33 31 31 32 37 34 29 36 41 30 19 19 20 20 18 18 19 18 18 24 27 29 31 34 40 43 47 51 48
35 40 36 37 41 40 37 39 51 61 67 54 42 48 36 27 25 29 31 36 32 29 30 36 33 32 26 21 23 24 24 22 21 24 26 26 28 31 34 40 41 45 45 48
34 38 30 28 26 29 49 56 42 48 69 70 45 36 33 30 16 22 29 34 31 31 30 34 34 37 35 33 25 23 26 28 27 26 26 28 27 23 28 35 39 41 44 47
37 41 36 39 38 34 36 41 50 52 83 82 60 51 35 24 22 27 28 29 31 31 29 32 34 38 40 45 50 52 49 37 31 32 31 30 27 25 24 26 27 27 29 32
49 50 41 36 42 39 42 40 42 42 43 59 66 47 33 32 36 31 28 33 31 28 27 31 35 38 42 47 50 53 52 55 54 40 34 34 34 32 32 32 34 37 39 43
68 47 47 38 41 41 40 35 39 45 62 55 46 42 33 29 36 34 31 29 26 29 22 29 33 37 42 48 52 56 55 52 53 53 56 69 70 72 56 48 50 47 53 62
95 66 52 45 36 41 45 46 40 41 43 48 57 45 34 30 34 36 33 30 27 29 27 28 32 29 27 35 35 44 49 53 52 53 52 60 70 92 80 69 55 52 62 83
99 100 75 53 44 36 35 35 43 42 42 45 44 44 40 35 35 38 37 32 29 30 28 30 31 31 30 31 30 28 25 23 26 36 39 47 60 72 76 75 73 68 78 81
97 99 83 67 56 41 44 39 36 39 42 45 43 43 40 37 31 34 31 37 33 31 29 31 32 33 32 32 33 30 29 30 32 32 30 33 47 60 65 63 62 55 52 58
89 93 90 68 60 54 50 41 38 42 50 47 43 46 45 43 38 34 32 40 37 36 34 32 33 32 33 33 33 35 31 33 36 36 37 38 40 46 56 60 53 49 51 50
98 96 99 66 61 56 58 51 46 44 47 47 50 52 50 41 40 35 33 37 38 38 36 35 34 34 32 33 32 36 36 36 39 34 31 60 49 52 57 55 49 48 47 49
89 89 96 84 69 87 62 52 50 52 48 47 49 55 55 45 40 38 35 35 36 38 39 37 38 34 33 32 34 35 38 40 41 36 27 53 54 50 56 53 57 60 52 43
92 94 99 96 91 73 66 57 53 51 45 56 56 57 52 49 45 40 36 34 34 32 35 38 33 29 32 31 33 38 40 42 34 33 25 32 53 61 64 76 85 60 42 50
68 76 88 98 92 95 58 54 56 64 69 52 61 58 58 52 46 38 33 33 29 28 31 30 30 28 33 33 36 41 42 32 29 28 28 31 40 50 56 56 41 43 53 66
85 94 98 98 78 75 55 51 58 67 49 59 62 58 61 57 56 41 32 32 32 31 28 27 27 27 32 37 41 42 33 30 33 30 31 35 37 40 41 42 48 55 57 51
76 70 89 100 95 88 52 63 66 66 58 60 61 84 78 75 56 46 38 35 34 32 30 28 28 32 38 42 40 30 32 40 42 42 41 39 36 38 43 46 42 36 36 38
66 65 67 66 57 59 59 67 69 70 74 57 62 82 92 82 82 64 45 40 38 35 33 31 32 43 42 34 34 36 41 47 47 47 49 48 44 42 46 44 39 38 39 42
49 56 56 53 46 64 68 69 62 74 66 56 53 60 78 80 80 66 47 44 40 37 37 46 41 37 39 40 42 44 47 49 51 52 54 55 56 53 55 54 53 53 53 55
66 59 52 49 47 44 49 55 67 66 64 57 48 58 65 69 86 86 78 56 45 51 55 47 42 45 46 48 50 50 53 55 56 57 59 63 67 71 73 73 74 77 82 86
65 63 57 59 62 60 42 43 40 40 52 54 51 57 56 56 76 72 67 74 65 72 66 92 77 70 62 67 65 64 67 59 62 66 71 79 82 82 90 97 98 98 97 97
Wind_Speed
35 35 37 38 33 31 20 18 17 14 12 16 13 18 14 14 16 15 16 12 8 6 8 10 9 10 10 15 15 21 21 21 18 18 18 20 25 30 36 35 39 39 33 33
36 40 36 35 29 29 31 30 31 26 18 20 16 21 16 15 16 18 16 12 7 6 6 8 8 6 4 9 10 19 16 19 25 17 18 25 25 29 35 33 35 31 31 29
34 37 37 37 35 32 33 34 32 27 20 21 22 24 19 17 18 19 17 14 11 6 7 7 4 2 2 3 5 15 22 23 22 20 20 26 29 31 33 33 35 37 34 33
25 32 28 18 32 33 33 32 27 24 26 19 12 9 20 20 19 20 16 14 11 5 6 6 3 3 7 4 3 5 9 17 22 19 21 25 23 35 34 31 37 37 35 33
27 24 30 37 23 27 28 30 23 23 24 24 29 11 23 22 24 22 18 16 12 9 8 6 2 4 8 9 6 5 7 7 7 16 21 21 25 24 24 23 26 33 34 34
40 32 23 22 30 19 4 11 15 17 20 8 26 19 18 18 22 23 20 20 18 14 12 9 8 8 8 10 10 9 8 10 13 14 15 19 22 23 25 26 28 31 33 35
31 36 33 24 18 27 32 24 3 2 3 7 11 17 28 25 25 22 15 10 10 17 15 14 11 7 7 7 9 9 9 10 11 13 15 18 20 21 22 24 26 29 31 29
31 17 35 31 30 24 27 35 11 6 5 5 13 9 12 15 15 15 16 10 11 20 15 13 12 10 8 7 8 8 7 9 11 12 13 15 17 20 22 25 27 29 29 29
9 18 15 23 31 32 18 38 31 8 0 1 9 16 24 26 23 18 17 17 13 15 19 16 12 10 8 8 7 7 9 8 9 10 13 15 17 20 21 23 25 27 29 31
21 16 9 9 19 31 39 20 16 19 5 4 5 10 16 16 15 15 13 14 14 13 14 15 17 14 11 8 8 9 9 10 12 14 15 16 17 19 21 24 27 28 29 31
30 18 13 10 19 27 32 39 21 15 19 6 3 8 18 13 10 13 7 8 9 9 15 16 19 17 17 15 14 12 11 10 11 15 18 20 20 20 21 23 25 25 26 28
7 18 23 31 14 11 27 37 40 20 6 9 13 20 17 15 6 11 12 11 9 5 6 8 12 17 19 16 16 16 17 16 17 19 18 17 19 21 19 22 29 27 29 27
4 6 17 25 37 29 23 22 31 32 24 24 13 8 19 21 15 9 14 16 12 7 8 8 9 4 11 15 14 15 16 18 18 21 23 22 24 17 16 15 12 27 33 33
17 14 19 19 13 15 26 25 19 25 25 20 28 20 24 27 22 13 9 13 16 13 12 11 8 7 4 3 5 8 11 11 13 15 17 18 22 21 21 20 17 18 23 29
20 22 22 32 30 30 26 20 26 29 34 30 31 29 27 28 21 19 16 16 15 18 16 14 10 9 10 8 5 5 6 10 12 12 13 14 14 18 20 21 21 18 18 19
23 26 17 26 30 24 32 37 36 31 28 31 37 35 35 31 31 27 22 20 18 16 14 19 15 15 14 14 9 11 10 10 13 13 15 15 16 19 19 20 21 22 23 23
20 12 14 5 18 21 21 38 33 32 31 29 33 27 25 31 31 21 21 24 25 23 20 21 22 20 19 20 16 14 15 14 17 17 17 20 19 19 20 21 23 24 27 29
21 22 18 4 12 3 11 12 21 30 32 38 39 33 23 22 24 28 27 25 24 23 25 23 27 23 21 20 22 19 18 18 20 21 19 21 23 22 22 23 24 27 31 32
22 25 8 5 8 11 6 3 10 14 22 21 42 41 32 23 24 26 27 23 25 26 26 27 21 19 24 22 21 21 19 21 23 23 21 20 22 24 24 26 28 32 31 27
26 23 20 7 4 3 1 2 8 14 20 23 20 30 22 16 23 24 19 20 15 18 23 24 23 24 24 23 21 20 24 26 24 22 21 20 23 25 27 28 28 27 25 25
16 21 25 16 9 9 15 12 16 11 12 14 16 27 24 11 15 20 23 20 20 15 20 21 22 23 23 22 23 25 26 25 22 20 19 21 23 25 25 24 23 23 24 24
5 11 16 13 8 8 9 10 10 16 18 17 13 13 30 21 14 14 17 16 18 16 19 23 24 26 26 26 25 25 23 21 20 20 21 22 23 24 24 23 23 24 25 27
9 8 1 4 8 11 12 13 10 12 16 19 16 9 9 16 18 24 15 13 19 21 22 24 26 25 23 23 22 22 21 21 21 21 21 21 23 23 24 24 26 27 29 31
21 20 20 19 14 13 15 15 15 13 18 21 20 19 16 7 10 18 26 23 22 22 26 20 21 21 20 19 20 21 23 23 22 21 21 22 22 23 24 25 27 29 31 33
14 19 23 26 22 25 19 13 11 16 22 22 23 17 18 24 17 17 18 17 25 21 24 26 23 21 22 22 23 24 24 23 24 22 22 22 22 22 23 25 27 28 30 32
13 17 21 25 25 24 21 19 17 19 21 20 19 18 17 18 20 23 25 22 21 17 25 18 19 20 20 19 19 22 26 26 26 24 22 24 25 24 22 22 21 20 21 22
Wind_Direction
226 221 227 240 240 243 245 252 263 259 253 269 271 285 285 290 285 286 301 296 293 271 311 332 322 300 322 326 213 204 200 207 197 201 213 189 201 196 191 187 180 166 177 186
226 232 240 242 243 241 246 251 260 263 258 277 277 275 269 271 284 287 288 276 272 289 296 322 337 290 325 342 198 197 197 196 202 202 195 199 191 194 196 188 175 177 186 192
236 241 241 239 243 238 242 244 253 258 266 272 287 275 265 268 282 279 276 265 260 269 267 274 324 257 204 17 96 209 213 193 187 190 193 197 192 192 198 189 187 188 194 201
256 242 239 235 238 245 240 249 251 259 266 275 288 290 277 277 280 275 267 263 266 261 266 261 259 171 184 169 107 120 194 208 204 202 204 208 199 200 202 197 202 189 200 208
238 243 239 233 239 241 245 245 248 254 267 276 276 263 274 282 278 273 274 263 276 262 252 245 179 194 190 170 165 133 116 123 170 186 196 203 195 197 207 204 209 200 205 210
244 245 248 253 246 229 241 238 246 251 259 250 259 250 278 267 279 292 284 270 262 253 232 225 217 207 190 182 175 170 156 141 138 140 156 167 176 176 185 196 198 202 204 210
232 240 242 251 242 241 244 244 249 237 206 235 241 237 250 277 286 289 287 260 224 211 217 216 230 233 216 196 189 184 175 160 153 153 153 155 161 170 179 189 194 200 206 211
222 244 236 231 232 239 225 217 194 185 194 222 212 233 253 283 284 289 287 253 228 207 211 216 219 235 240 220 202 207 201 184 172 173 172 174 180 182 185 194 201 206 214 222
228 231 232 237 240 226 218 220 219 246 157 290 229 241 265 276 288 285 274 242 223 202 209 215 212 215 214 230 222 202 199 205 200 199 197 196 197 199 201 205 212 217 221 227
240 260 267 265 227 227 222 217 188 213 167 221 255 242 242 282 288 276 253 249 208 220 225 220 208 213 203 202 201 198 194 201 211 214 215 220 220 218 218 220 223 226 232 237
230 242 236 246 222 222 214 225 226 214 221 203 193 244 261 287 278 250 217 217 188 213 234 233 227 213 221 215 221 241 241 238 235 227 225 225 229 233 237 239 240 243 245 244
244 248 250 243 225 226 230 222 220 218 202 222 239 239 256 272 318 241 207 206 197 218 194 194 214 224 231 235 242 253 258 256 256 259 246 247 260 264 264 260 260 254 254 254
319 247 246 257 251 240 249 234 229 228 240 236 224 248 265 268 275 265 237 216 224 225 198 189 209 246 225 229 239 249 259 268 269 269 273 266 263 237 235 253 263 248 251 261
273 276 231 227 229 233 244 244 237 228 229 235 245 262 261 266 270 253 251 229 227 224 225 209 241 274 243 221 232 248 258 272 274 269 270 272 267 257 250 255 255 262 260 256
290 288 259 241 243 245 251 232 229 240 245 239 253 261 267 266 259 243 258 252 233 233 232 223 265 268 258 243 249 276 254 275 276 274 275 281 270 251 252 250 254 261 266 263
282 280 269 246 230 235 246 250 253 255 247 253 252 265 261 267 267 260 262 242 241 234 236 233 247 249 247 249 257 259 267 270 279 274 271 257 268 261 254 250 254 258 265 269
276 278 324 228 219 224 250 242 247 255 255 262 256 261 262 257 252 255 239 241 246 247 243 231 248 252 249 255 249 252 255 266 276 278 271 265 270 260 255 255 252 260 268 271
261 298 297 280 143 174 254 285 249 252 254 255 257 242 253 234 241 246 246 245 244 245 250 253 247 251 245 243 248 251 259 263 271 270 273 257 263 263 258 263 266 269 276 271
234 253 263 317 343 289 228 204 220 252 280 279 250 238 264 252 248 253 250 244 258 258 245 236 243 241 233 237 243 249 257 262 266 268 269 255 257 260 262 269 270 272 268 263
235 242 242 218 128 291 0 341 289 262 270 287 244 228 248 254 256 243 238 238 251 246 239 236 230 241 239 236 238 244 250 265 266 263 263 261 258 262 264 265 266 263 260 258
210 222 220 236 251 238 265 272 293 226 272 287 255 241 232 269 273 251 230 233 241 248 224 234 252 236 233 224 228 240 255 260 264 268 271 270 268 267 267 266 263 258 255 255
235 215 216 226 243 270 276 264 265 294 284 289 291 242 231 239 260 234 229 228 237 251 250 247 240 227 224 221 233 245 251 256 263 268 273 277 278 277 275 271 264 259 258 259
263 237 299 256 278 287 302 275 302 308 300 310 309 257 247 275 266 259 245 232 242 244 252 248 237 215 217 228 237 243 248 250 256 265 272 277 278 274 269 266 266 266 265 265
245 245 279 291 283 300 279 258 264 287 300 307 311 301 287 297 321 276 254 237 244 244 244 216 205 212 219 229 237 245 253 258 263 269 276 276 274 271 267 266 268 269 269 269
252 254 266 267 273 270 281 286 302 289 287 292 297 289 268 285 287 298 291 251 231 254 214 204 207 217 221 228 241 246 254 266 273 273 276 279 280 278 277 276 273 272 274 277
276 274 270 272 268 270 276 287 279 283 287 268 274 275 284 279 268 270 267 274 246 254 234 238 237 241 237 246 251 256 258 265 270 275 279 283 282 278 277 283 286 286 295 297